Regional Weather Roundup
Issued by NWS

Home | Current Version | Previous Version | Graphics & Text | Print | Product List | Glossary Off
Versions: 1 2 3 4 5 6 7 8 9 10 11 12 13 14 15 16 17 18 19 20 21 22 23 24 25 26 27 28 29 30 31 32 33 34 35 36 37 38 39 40 41 42 43 44 45 46 47 48 49 50

000
ASUS43 KMKX 311459
RWRWI

WISCONSIN REGIONAL WEATHER ROUNDUP
NATIONAL WEATHER SERVICE MILWAUKEE/SULLIVAN WI
900 AM CST SAT JAN 31 2015

NOTE: "FAIR" INDICATES FEW OR NO CLOUDS BELOW 12,000 FEET WITH NO
SIGNIFICANT WEATHER AND/OR OBSTRUCTIONS TO VISIBILITY.

WIZ001-002-006>008-014>016-023>028-311600-
NORTHWEST WISCONSIN

CITY           SKY/WX    TMP DP  RH WIND       PRES   REMARKS
SUPERIOR ARPT  CLOUDY    22  15  72 N8        30.23R WCI  13
ASHLAND        CLOUDY    22  15  75 NW13      30.20R WCI  10
HAYWARD        CLOUDY    22  15  75 N7        30.17R WCI  13
SIREN          CLOUDY    24  18  77 N9        30.19R WCI  15
CUMBERLAND     CLOUDY    23  19  86 N7        30.16R WCI  15
RICE LAKE      CLOUDY    24  19  84 N7        30.18R WCI  15
CHETEK         CLOUDY    21  17  83 CALM      30.16S
LADYSMITH      CLOUDY    21  16  81 N6        30.16R WCI  14
EAU CLAIRE     CLOUDY    24  15  68 NE5       30.16R WCI  18
MENOMONIE      CLOUDY    25  18  77 N6        30.17S WCI  18
NEW RICHMOND   CLOUDY    27  23  86 N8        30.17S WCI  18
OSCEOLA        CLOUDY    27  22  83 N8        30.21R WCI  18
$$

WIZ003>005-009-010-017-018-311600-
NORTH CENTRAL WISCONSIN

CITY           SKY/WX    TMP DP  RH WIND       PRES   REMARKS
MANITOWISH WTR CLOUDY    19  16  90 NW6       30.10S WCI  10
ARBOR VITAE    CLOUDY    22  19  87 NW3       30.10S
WOODRUFF       CLOUDY    22  19  87 NW3       30.10S
RHINELANDER    CLOUDY    20  15  81 NW3       30.10S
EAGLE RIVER    CLOUDY    18  15  85 CALM      30.08F
LAND O LAKES   CLOUDY    20  17  88 W5        30.10R WCI  13
PHILLIPS       CLOUDY    19  15  86 NW5       30.12R WCI  12
TOMAHAWK       CLOUDY    20  15  82 CALM      30.13R
MEDFORD        CLOUDY    20  16  84 NW5       30.12R WCI  13
MERRILL        CLOUDY    20  15  80 CALM      30.13R
$$

WIZ029-030-035-036-043>047-311600-
CENTRAL WISCONSIN

CITY           SKY/WX    TMP DP  RH WIND       PRES   REMARKS
WAUSAU         CLOUDY    20  13  74 NW5       30.12R WCI  13
MOSINEE        CLOUDY    21  16  79 W3        30.14R
MARSHFIELD     CLOUDY    22  14  71 W5        30.13S WCI  16
STEVENS POINT  CLOUDY    20  13  72 SW3       30.14S
WAUPACA        CLOUDY    25  17  70 CALM      30.17R
WAUTOMA        NOT AVBL
WISC RAPIDS    CLOUDY    24  15  68 CALM      30.15F
CAMP DOUGLAS   NOT AVBL
$$

WIZ011>013-019>022-031-037>040-048>050-311600-
NORTHEAST WISCONSIN

CITY           SKY/WX    TMP DP  RH WIND       PRES   REMARKS
ANTIGO         CLOUDY    19  15  84 NW6       30.10R WCI  11
SHAWANO        CLOUDY    24  14  66 CALM      30.15F
OCONTO         CLOUDY    22  14  69 MISG      30.15S
STURGEON BAY   CLOUDY    21  12  68 W7        30.16S WCI  13
GREEN BAY      CLOUDY    24  17  74 SW7       30.16S WCI  16
MANITOWOC      NOT AVBL
APPLETON       CLOUDY    25  16  68 SW7       30.16R WCI  17
CLINTONVILLE   CLOUDY    23  14  68 CALM      30.15S
OSHKOSH        CLOUDY    25  17  72 W6        30.16S WCI  18
$$

WIZ032>034-041-042-053>061-311600-
SOUTHWEST WISCONSIN

CITY           SKY/WX    TMP DP  RH WIND       PRES   REMARKS
LA CROSSE      CLOUDY    26  17  68 S7        30.18R WCI  18
SPARTA         CLOUDY    26  17  68 CALM      30.18S
VIROQUA        CLOUDY    24  19  80 SW6       30.15R WCI  17
BOSCOBEL       MOSUNNY   20  15  81 CALM      30.20S
PRAIRIE DU CHI MOSUNNY   20  15  82 CALM      30.19S
PLATTEVILLE    PTSUNNY   23  19  85 S5        30.18S WCI  17
$$

WIZ056-057-062-063-064-067-068-311600-
SOUTH CENTRAL WISCONSIN

CITY           SKY/WX    TMP DP  RH WIND       PRES   REMARKS
REEDSBURG      CLOUDY    24  17  75 SW6       30.16S WCI  17
BARABOO/DELLS  CLOUDY    24  17  74 SW5       30.16S WCI  18
LONE ROCK      NOT AVBL
MINERAL POINT  MOSUNNY   23  19  86 CALM      30.16S
MADISON        PTSUNNY   25  16  68 VRB3      30.17F
MIDDLETON      SUNNY     26  17  71 SW3       30.18S
WATERTOWN      SUNNY     24  19  80 SW7       30.17F WCI  16
MONROE         MOSUNNY   27  21  80 SW10      30.17F WCI  17
JANESVILLE     SUNNY     27  19  74 SW3       30.19F
$$

WIZ051-052-058>065-066-070>072-311600-
SOUTHEAST WISCONSIN

CITY           SKY/WX    TMP DP  RH WIND       PRES   REMARKS
MILWAUKEE      MOSUNNY   29  18  63 W13       30.18F WCI  19
WAUKESHA       SUNNY     25  18  74 SW12      30.18F WCI  14
MILWAUKEE/TIMM SUNNY     27  18  69 W9        30.19F WCI  17
RACINE         SUNNY     29  18  63 SW10G18   30.20F WCI  20
BURLINGTON     SUNNY     25  18  74 SW9       30.19F WCI  16
KENOSHA        SUNNY     30  19  63 SW14      30.19F WCI  19
FOND DU LAC    CLOUDY    24  17  74 SW6       30.16F WCI  17
SHEBOYGAN      CLOUDY    27  17  66 W10       30.16F WCI  17
WEST BEND      SUNNY     27  18  69 W8        30.17S WCI  18
JUNEAU         SUNNY     22  17  81 SW7       30.18F WCI  13
$$

LSZ147-162-311600-
LAKE SUPERIOR

STATION/POSITION TIME  TEMP    WIND        PRES    WAVE
                       AIR SEA DIR/SP/G            HT/PER
                 (UTC) (F)     (DEG/KT/KT) (MB)    (FT/S)
DEVILS ISLAND    1400   23     320/ 14/ 16 1023.7R
PORT WING        1440   23     330/ 13/ 16 1023.4R
SAXON HARBOR     1400   23     270/  2/  7 1022.0R
$$

LMZ867-665-643>646-311600-
LAKE MICHIGAN

STATION/POSITION TIME  TEMP    WIND        PRES    WAVE
                       AIR SEA DIR/SP/G            HT/PER
                 (UTC) (F)     (DEG/KT/KT) (MB)    (FT/S)
NORTHPORT PIER   1420   22     270/  3/ 10 1021.0R
SISTER BAY       1413   22     280/  8/  9   N/A
KEWAUNEE LAKESHO 1400   24     270/  5/  7 1020.4R
SHEBOYGAN LAKESH 1400   26     250/  9/ 10 1022.9R
PORT WASHINGTON  1440   28     270/ 10/ 14 1022.4S
MILWAUKEE LAKESH 1400   27     260/ 11/ 14   N/A
KENOSHA   LAKESH 1400   29     240/ 12/ 17 1022.7S
$$

TC  - TEMPERATURE IN CELSIUS
VSB - VISIBILITY IN STATUTE MILES
WCI - WIND CHILL INDEX
HX  - HEAT INDEX




USA.gov is the U.S. government's official web portal to all federal, state and local government web resources and services.